Погода в Путиле

Украина / Черновицкая область     47°59′42″N   25°06′13″E
темп.,
°C
ветер,
м/с
пор.,
м/с
влажн.,
%
обл.,
%
осадки,
мм/ч
давл.,
гПа
погр.,
м
23 апреля, пт
пт2300:00+3св1298100 1.4 1018143
03:00+1ссв12100100 4.8 1019125
06:000св11100100 2.8 101988
09:000св1297100 5.1 1021208
12:00+1с2396100 2.7 1021461
15:00+4с128191 3.8 1020778
18:00+3с239477 1.6 1021229
21:00−1юв01100100 2.7 102446
24 апреля, сб
сб2400:00−2юз229762 0.3 1025104
03:00−4юз229640 0.3 102531
06:00−4юз229746 0.0 102534
09:00+2зсз138116 0.0 1024663
12:00+5ссз246698 0.1 10231432
15:00+6ссз136584 0.4 10211339
18:00+6ссз236890 0.3 1021977
21:00−1ююв019859 0.5 102514
25 апреля, вс
вс2500:00−2ююз229720 0.0 102433
03:00−3ююз229563 0.0 102331
06:00−2ююз239299 0.0 102144
09:00+3с1279100 0.0 1020510
12:00+3с238798 0.4 1020488
15:00+2ссв2399100 1.3 1020219
18:00+1св2299100 1.6 1021119
21:000ссв1199100 2.6 102287
26 апреля, пн
пн2600:00−2с2399100 1.6 1023262
03:00−4юз1198100 2.8 102320
06:00−6юз219731 0.0 102317
09:00+1зсз01805 0.0 1021483
12:00+4ссз136099 0.0 10191684
15:00+6ссз1355100 0.1 10161827
18:00+5з235810 0.1 10161418
21:00−4в119832 0.1 101922
27 апреля, вт
вт2700:00−2юз119685 0.1 101952
03:00−5зюз119861 0.1 101959
06:00−3ююз119618 1.0 101871
09:00+2св11755 1.0 1018472
12:00+6св22586 0.0 10161183
15:00+9св235186 0.0 10131284
18:00+8в3362100 0.0 1012815
21:00+1ююв2294100 0.0 101415